Regional Weather Roundup
Issued by NWS Cleveland, OH

Home | Current Version | Previous Version | Text Only | Print | Product List | Glossary On
Versions: 1 2 3 4 5 6 7 8 9 10 11 12 13 14 15 16 17 18 19 20 21 22 23 24 25 26 27 28 29 30 31 32 33 34 35 36 37 38 39 40 41 42 43 44 45 46 47 48 49 50
000
ASUS41 KCLE 291510
RWRCLE
OHIO REGIONAL WEATHER ROUNDUP
NATIONAL WEATHER SERVICE WILMINGTON, OH
1100 AM EDT SAT AUG 29 2015

NOTE: "FAIR" INDICATES FEW OR NO CLOUDS BELOW 12,000 FEET WITH NO
SIGNIFICANT WEATHER AND/OR OBSTRUCTIONS TO VISIBILITY.

OHZ001>008-015>018-024>027-034-035-043-044-291600-
   NORTHWEST OHIO

CITY           SKY/WX    TMP DP  RH WIND       PRES   REMARKS
DEFIANCE       PTSUNNY   72  60  66 CALM      30.12S
FINDLAY        PTSUNNY   72  62  71 SE3       30.12S
TOLEDO EXPRESS CLOUDY    69  61  75 SE3       30.12F
TOLEDO EXEC    CLOUDY    72  60  66 SE3       30.14S
LIMA           PTSUNNY   74  62  66 S10       30.12F
$$

OHZ009>014-019>023-028>033-038-089-291600-
   NORTHEAST OHIO

CITY           SKY/WX    TMP DP  RH WIND       PRES   REMARKS
CLE-HOPKINS    PTSUNNY   74  58  57 SW6       30.18F
CLE-LAKEFRONT  PTSUNNY   78  56  46 VRB5      30.15F
CUY CO. ARPT   MOSUNNY   79  59  50 SW6       30.18S
LORAIN-ELYRIA  PTSUNNY   71  60  68 S3        30.17S
ASHTABULA      PTSUNNY   70  60  70 S7        30.19S
AKRON-CANTON   PTSUNNY   77  56  48 VRB6      30.19S
WOOSTER        PTSUNNY   76  58  53 S6        30.19S
MANSFIELD      PTSUNNY   75  59  57 SE7       30.17F
YOUNGSTOWN     PTSUNNY   71  58  63 SW3       30.20S
$$

OHZ042-051>053-060>062-070>072-077>081-291600-
  SOUTHWEST OHIO

CITY           SKY/WX    TMP DP  RH WIND       PRES   REMARKS
CINC-COVINGTON MOSUNNY   78  67  68 SW9       30.15
CINC-LUNKEN    MOSUNNY   79  69  71 S10       30.15R
HAMILTON       MOSUNNY   80  67  64 W8        30.15R
DAYTON         CLOUDY    74  65  73 S9        30.15S
WRIGHT-PAT AFB PTSUNNY   78  67  68 S8        30.14R
DAYTON GENERAL MOSUNNY   78  65  63 SW8       30.14S
WILMINGTON     MOSUNNY   78  65  63 SW12      30.16R
$$

OHZ036-037-039>041-045>050-054>059-063>069-073>076-082>088-291600-
  CENTRAL AND SOUTHEAST OHIO

CITY           SKY/WX    TMP DP  RH WIND       PRES   REMARKS
COLUMBUS       PTSUNNY   74  61  63 S6        30.16R
OSU AIRPORT    MOSUNNY   77  63  61 SW9       30.15S
BOLTON FIELD   SUNNY     75  64  69 S7        30.16S
RICKENBACK AFB MOSUNNY   74  62  66 SW9       30.16S
NEWARK         MOSUNNY   75  62  64 S8        30.17S
MARION         PTSUNNY   72  61  68 SW8       30.16S
LANCASTER      SUNNY     78  65  63 S5        30.17S
ZANESVILLE     MOSUNNY   74  60  61 E3        30.18S
NEW PHILLY     MOSUNNY   75  60  59 VRB3      30.19S
$$



USA.gov is the U.S. government's official web portal to all federal, state and local government web resources and services.